Location: Goudie Road
(49.9333°N, 119.0750°W)
Time: 19:02:40
(UTC-08:00)

Daily predictions for brighter satellites

Satellite Brightness Start Highest point End
(mag) Time Altitude Azimuth Time Altitude Azimuth Time Altitude Azimuth
NOSS 3-2 (C) 4.5 17:01:26 10° W 17:07:26 42° NNW 17:14:05 10° NE
Cosmos 2333 Rocket 2.4 17:03:32 10° S 17:09:00 54° ESE 17:14:31 10° NE
Cosmos 1674 2.8 17:05:12 10° S 17:09:02 83° W 17:12:56 10° N
Cosmos 2322 Rocket 4.1 17:05:46 10° W 17:10:11 23° NW 17:14:36 10° NNE
Abrixas 4.3 17:09:04 10° SSW 17:11:22 21° SSE 17:13:40 10° E
Cosmos 2278 Rocket 2.4 17:06:26 10° NNW 17:12:09 81° WSW 17:17:49 10° SSE
Tsikada Rocket 4.3 17:07:52 10° SSW 17:14:16 81° W 17:20:45 10° N
SJ-7 4.3 17:14:15 10° SSE 17:18:15 82° ENE 17:22:17 10° NNW
MSX 3.8 17:12:54 10° SSE 17:18:36 74° ENE 17:24:21 10° NNW
MOS 1 4.3 17:13:20 10° SSE 17:19:00 88° ENE 17:24:44 10° NNW
CENTAUR R/B 2.9 17:12:52 10° SW 17:19:10 74° NW 17:26:22 10° NE
Timation 1 Rocket 4.3 17:13:39 10° NNW 17:19:42 72° ENE 17:25:42 10° SE
Cosmos 1125 Rocket 4.0 17:16:29 10° NNW 17:21:40 66° WSW 17:26:48 10° S
SMAP 3.2 17:17:17 10° SSE 17:21:57 85° WSW 17:26:39 10° NNW
USA 116 3.2 17:19:38 10° NNE 17:22:47 54° ESE 17:25:49 10° S
Cosmos 371 Rocket 3.3 17:18:28 10° SSW 17:23:16 78° ESE 17:28:06 10° NNE
Cosmos 1634 Rocket 4.0 17:18:20 10° N 17:24:34 89° E 17:30:44 10° S
CZ-4 R/B 1.9 17:22:26 10° S 17:26:17 61° WSW 17:30:12 10° NNW
SJ-6B 4.1 17:24:40 10° ESE 17:27:48 21° ENE 17:30:58 10° NNE
Cosmos 841 Rocket 3.9 17:22:44 10° SSW 17:27:59 70° WNW 17:33:16 10° NNE
Cosmos 1707 Rocket 4.2 17:24:24 10° N 17:28:21 33° ENE 17:32:16 10° SE
Cosmos 1300 2.7 17:24:33 10° N 17:28:25 89° E 17:32:16 10° S
COSMO-SKYMED 1 3.4 17:27:21 10° NNE 17:31:15 31° E 17:35:07 10° SSE
MONITOR-E 4.2 17:28:10 10° SSE 17:31:17 57° ENE 17:34:25 10° N
Cosmos 2151 3.0 17:28:50 10° S 17:32:57 57° E 17:37:05 10° NNE
YAOGAN 1 2.9 17:29:52 10° S 17:34:11 74° WSW 17:38:33 10° NNW
Cosmos 2084 Rocket 4.5 17:31:22 10° NNW 17:34:28 23° NNE 17:36:52 14° ENE
Cosmos 2369 Rocket 3.4 17:34:45 10° NNW 17:39:12 23° NE 17:42:51 13° E
Cosmos 2237 Rocket 2.2 17:34:36 10° SSW 17:40:12 72° ESE 17:45:51 10° NNE
Thor Agena Rocket 3.5 17:34:58 10° NNE 17:40:15 71° ESE 17:45:24 10° S
FREGAT/IRIS 4.0 17:40:44 10° ESE 17:43:03 20° ENE 17:45:22 10° NNE
Meteor 1-27 4.3 17:37:50 10° NNW 17:43:42 86° ENE 17:49:33 10° SSE
Meteor 2-10 4.0 17:40:07 10° NNW 17:45:15 88° E 17:50:30 10° SSE
Cosmos 44 Rocket 3.6 17:41:07 10° SW 17:46:13 71° NW 17:51:13 10° NE
SPOT 3 Rocket 4.3 17:43:43 10° S 17:48:47 58° WSW 17:53:55 10° NNW
SL-16 R/B 2.7 17:43:38 10° S 17:48:50 40° ESE 17:53:50 11° NE
SL-14 R/B 3.2 17:44:53 10° S 17:48:51 85° E 17:52:53 10° NNE
Cosmos 1484 Rocket 2.9 17:46:42 10° SSE 17:50:40 87° W 17:54:43 10° NNW
COSMOS 2428 3.8 17:45:44 10° WSW 17:51:09 42° NW 17:56:35 10° NNE
Cosmos 1340 Rocket 2.8 17:49:12 10° S 17:53:02 56° E 17:56:54 10° NNE
Meteor 1-28 Rocket 3.8 17:49:49 10° NNE 17:53:14 33° E 17:56:39 10° SSE
Resurs 01 Rocket 2.7 17:51:22 10° ESE 17:54:54 24° ENE 17:58:27 10° N
Lacrosse 4 Rocket 1.4 17:52:56 10° NNW 17:56:57 54° NE 18:00:56 10° SE
Cosmos 304 Rocket 3.9 17:52:21 10° S 17:57:01 53° ESE 18:01:36 11° NNE
Cosmos 2297 4.0 17:51:36 10° NNW 17:57:19 75° WSW 18:03:01 10° SSE
Cosmos 1151 Rocket 4.3 17:54:03 10° NNW 17:58:08 44° W 18:02:13 10° SSW
Blok-2BL 3.7 17:54:58 10° NNW 17:58:08 39° NE 17:59:40 24° E
Cosmos 1869 3.9 17:59:27 10° N 18:03:13 35° ENE 18:06:57 10° SE
Aureole 2 Rocket 2.8 18:00:42 10° SSW 18:04:36 88° WNW 18:08:46 10° NNE
Cosmos 1867 4.5 17:59:51 10° NNW 18:04:43 31° NNE 18:07:15 22° ENE
CZ-4C R/B 3.7 17:59:17 10° NW 18:04:51 29° NNE 18:08:40 19° ENE
Cosmos 2279 Rocket 4.3 18:04:30 10° NNW 18:10:42 72° W 18:16:54 10° S
FENGYUN 3A 4.0 18:10:10 10° SE 18:15:10 41° ENE 18:20:12 10° N
METEOR-M 4.0 18:09:53 10° SSE 18:15:12 71° ENE 18:20:33 10° N
Cosmos 2058 3.2 18:12:17 10° SSW 18:16:22 66° W 18:20:28 10° N
Cosmos 540 Rocket 4.0 18:11:39 10° SW 18:16:46 60° WNW 18:21:54 10° NNE
Cosmos 2084 4.3 18:14:07 10° WSW 18:17:43 38° NW 18:20:03 18° NNE
SKYMED 2 3.5 18:15:07 10° NNE 18:19:30 90° ESE 18:23:51 10° SSW
Cosmos 2242 Rocket 3.6 18:15:57 10° N 18:20:20 56° ENE 18:24:42 10° SSE
Cosmos 1805 Rocket 3.5 18:17:21 10° S 18:21:50 85° E 18:26:19 10° N
Cosmos 773 Rocket 4.3 18:17:54 10° S 18:22:45 42° ESE 18:25:16 25° NE
Cosmos 2360 Rocket 4.4 18:19:36 10° WNW 18:23:22 18° NW 18:27:08 10° N
Cosmos 1461 2.7 18:19:18 10° SSW 18:23:25 69° SE 18:25:03 34° NE
NOAA 12 4.0 18:18:12 10° SSE 18:23:28 86° ENE 18:28:47 10° NNW
Lacrosse 5 2.7 18:19:48 10° WNW 18:24:33 38° N 18:26:32 27° NE
Cosmos 1626 2.0 18:22:13 10° S 18:25:56 75° E 18:28:54 16° NNE
ATLAS 5 CENTAUR R/B 3.1 18:21:56 10° NW 18:27:03 33° NNE 18:28:57 28° ENE
Cosmos 1980 4.4 18:23:41 10° SW 18:29:13 52° NW 18:34:47 10° NNE
Orbus 7S? 4.2 18:26:11 10° WNW 18:29:56 78° SW 18:38:27 10° SE
ATLAS 3B R/B 3.9 18:24:17 10° NW 18:30:20 28° N 18:33:09 21° NE
USA 215 3.4 18:28:15 12° SE 18:34:29 78° SW 18:41:05 10° WNW
Sich 1 2.9 18:30:08 10° S 18:34:34 77° E 18:39:00 10° NNE
Nadezhda 4 Rocket 3.9 18:28:46 10° S 18:35:01 74° E 18:41:21 10° NNE
Cosmos 1356 Rocket 3.2 18:32:17 10° S 18:36:16 89° SE 18:39:19 17° NNE
Cosmos 44 4.2 18:32:23 10° WSW 18:37:23 47° NW 18:40:33 20° NNE
Cosmos 2026 Rocket 4.4 18:33:22 10° SSE 18:38:54 36° E 18:40:53 29° NE
BREEZE M DEB (TANK) 4.3 18:40:22 10° WSW 18:41:11 11° SW 18:41:56 10° SSW
ALOS 2.1 18:38:35 10° SSE 18:43:12 67° ENE 18:47:52 10° N
Cosmos 1455 2.9 18:40:22 10° NNW 18:44:04 53° W 18:47:47 10° S
Cosmos 1943 Rocket 3.0 18:39:34 10° NNW 18:44:17 30° NE 18:44:17 30° NE
Aureole 1 Rocket 4.0 18:39:09 10° S 18:44:54 64° ESE 18:52:24 10° NNE
Cosmos 1633 Rocket 2.9 18:40:42 10° S 18:45:06 86° E 18:48:43 15° N
Cosmos 2219 Rocket 3.8 18:41:15 10° WSW 18:46:12 31° NW 18:51:09 10° NNE
Abrixas 3.3 18:43:36 10° WSW 18:45:53 44° SW 18:45:53 44° SW
Cosmos 2333 Rocket 3.7 18:48:28 10° WSW 18:53:33 33° NW 18:58:34 11° NNE
Cosmos 1603 3.8 18:48:16 10° S 18:53:36 48° ESE 18:54:02 47° E
Cosmos 292 Rocket 4.3 18:49:08 10° S 18:52:44 40° SE 18:52:44 40° SE
Cosmos 1242 Rocket 2.5 18:50:14 10° NNW 18:53:28 73° NW 18:53:28 73° NW
HJ-1C 4.4 18:55:31 39° NNW 18:55:31 39° NNW 18:57:48 10° NNW
Helios 1A 4.4 18:56:36 26° N 18:56:36 26° N 18:58:39 10° N
Cosmos 2263 4.4 18:49:53 10° NNW 18:55:18 46° NE 18:55:38 46° ENE
Cosmos 1184 Rocket 3.1 18:52:14 10° SSW 18:55:30 64° W 18:55:30 64° W
FengYun 1-2 T 4.1 18:51:09 10° SSE 18:56:43 88° ENE 19:02:16 10° NNW
BREEZE-M DEB (TANK) 3.9 18:54:43 10° SW 18:55:53 25° SSW 18:55:53 25° SSW
Cosmos 1092 Rocket 3.9 18:51:12 10° S 18:57:31 79° E 19:03:54 10° NNE
Cosmos 1553 Rocket 4.2 18:51:38 10° N 18:57:32 44° ENE 18:57:35 44° ENE
Cosmos 972 Rocket 4.0 18:53:45 10° NNW 18:58:54 66° ENE 19:00:40 42° SE
SJ-6B 3.9 18:58:14 10° S 19:02:11 47° W 19:06:14 10° NNW
Cosmos 1862 Rocket 3.4 18:59:16 10° N 19:03:42 88° ENE 19:04:40 54° SSE
COSMO-SKYMED 1 4.3 19:03:31 10° N 19:07:24 32° WNW 19:11:17 10° SW
CENTAUR R/B 3.9 19:05:06 10° W 19:11:03 33° NNW 19:14:43 22° NNE
Spot 2 Rocket 3.5 19:06:36 10° S 19:11:39 77° WSW 19:16:43 10° NNW
Cosmos 2056 Rocket 4.0 19:07:09 10° NNW 19:11:02 43° NNE 19:11:02 43° NNE
Cosmos 2084 Rocket 3.9 19:10:31 10° NW 19:13:28 51° WNW 19:13:28 51° WNW
Iridium 4 Rocket 3.3 19:10:53 10° SSW 19:15:14 65° W 19:17:05 32° NNW
Cosmos 1624 Rocket 4.3 19:11:32 10° NNW 19:16:00 53° NNE 19:16:00 53° NNE
USA 229 DEB 3.6 19:13:38 10° SSW 19:20:29 76° SE 19:22:07 55° ENE
USA 229 3.6 19:13:44 10° SSW 19:20:34 76° SE 19:22:11 55° ENE
Cosmos 2195 Rocket 4.3 19:14:29 10° S 19:20:35 78° E 19:26:47 10° NNE
Cosmos 2369 Rocket 2.1 19:18:19 10° NNW 19:24:02 90° WNW 19:24:42 71° SSE
Cosmos 2237 Rocket 4.0 19:20:04 10° W 19:24:50 27° NW 19:28:45 14° N
Resurs 1-3 4.2 19:30:46 56° WSW 19:30:49 56° W 19:35:11 10° NNW
Resurs 01 Rocket 2.5 19:27:18 13° S 19:31:08 47° W 19:35:27 10° NNW
SL-16 R/B 3.2 19:27:35 10° WSW 19:32:57 42° NW 19:35:45 25° N
Lacrosse 4 Rocket 3.9 19:32:24 10° WNW 19:35:18 19° WSW 19:38:11 10° SSW
Cosmos 1371 Rocket 4.2 19:31:32 10° NNW 19:35:56 63° NW 19:35:56 63° NW
Cosmos 923 Rocket 4.2 19:32:56 10° SSW 19:37:51 70° W 19:37:51 70° W
Cosmos 1417 Rocket 4.4 19:34:45 10° NNW 19:40:58 80° W 19:42:53 47° S
Cosmos 1680 Rocket 4.2 19:39:14 10° SSW 19:42:54 47° SW 19:42:54 47° SW
Meteor 1-26 Rocket 4.4 19:39:41 10° NNW 19:44:37 66° NNW 19:44:37 66° NNW
Cosmos 1867 4.0 19:43:21 10° NW 19:47:57 61° WNW 19:47:57 61° WNW
CZ-4C R/B 3.0 19:47:58 10° NW 19:53:53 58° N 19:53:53 58° N
Cosmos 1655 Rocket 4.1 19:48:43 10° SSW 20:01:01 12° N 20:01:29 10° N
Lacrosse 5 3.4 20:03:04 10° NW 20:05:45 31° NW 20:05:45 31° NW
ATLAS 5 CENTAUR R/B 3.1 20:06:30 10° NW 20:10:32 48° NW 20:10:32 48° NW
S3M 4.5 20:08:56 10° NNW 20:14:38 58° WNW 20:14:38 58° WNW
ATLAS 3B R/B 3.6 20:15:44 10° NW 20:20:25 39° NNW 20:20:25 39° NNW
Cosmos 1943 Rocket 3.8 20:23:06 10° NW 20:25:50 29° NW 20:25:50 29° NW
CENTAUR R/B 4.4 20:57:45 10° NW 21:01:54 26° NNW 21:01:54 26° NNW
